    Observer details:
    247 Roving Observer.  Observer M. Masek.
    323 Perth Observatory, Bickley.  Observers P. Camilleri, J. Oey, R. Groom.  
        Measurer P. Camilleri.  0.34-m f/5 reflector + CCD.
    E94 Possum Observatory, Gisborne.  Observer J. Drummond.  0.41-m f/4.5 
       Newtonian reflector + CCD, 0.35-m f/10 Schmidt-Cassegrain + CCD.
    I39 Observatorio Cruz del Sur, San Justo.  Observer A. Chapman.  0.20-m f/4 
       reflector + CCD.
    I47 Pierre Auger Observatory, Malargue.  Observer M. Masek.  , 0.3-m f/6.8 
       reflector + CCD.
    I48 Observatorio El Catalejo, Santa Rosa.  Observer J. Spagnotto.  0.20-m f/5 
       reflector + CCD.
    Q38 Swan Hill.  Observer M. Mattiazzo.
    Q56 Heavens Mirror Observatory, Yass.  Observers E. Guido, M. Rocchetto, A. 
       Valvasori.  0.1-m f/3.6 astrograph + CCD.
    Q62 iTelescope Observatory, Siding Spring.  Observers N. Paul, B. Lutkenhoner, 
       M. Urbanik, K. Yoshimoto, A. Valvasori, E. Guido, H. Sato.  0.50-m f/6.8 
       reflector + CCD, 0.5-m f/4.4 reflector + CCD, 0.43-m f/6.8 reflector + CCD, 
       0.50-m f/6.8 reflector + CCD + f/4.5 focal reducer, 0.3-m f/9 reflector + 
       CCD, 0.51-m f/6.8 astrograph + CCD + f/4.5 focal reducer.
    Q63 Siding Spring-LCO A.  Observers P. Breitenstein, L. Broering.  1.0-m 
       Ritchey-Chretien + CCD.
    X02 Telescope Live, El Sauce.  Observers E. Guido, M. Rocchetto.  0.6-m f/6.5 
       astrograph + CCD.
    
    Orbital elements:
        C/2020 F8 (SWAN)                                                            
    Epoch 2020 May 31.0 TT = JDT 2459000.5                                          
    T 2020 May 27.59223 TT                                  Rudenko                 
    q   0.4295541            (2000.0)            P               Q                  
    z  +0.0000111      Peri.   68.33064     -0.38667804     +0.03006559             
     +/-0.0000000      Node   260.17022     -0.62816555     +0.72316900             
    e   0.9999952      Incl.  110.69778     +0.67519489     +0.69001642             
    From 90 observations 2020 Apr. 9-2020 Apr. 12, mean residual 0".8.               
                                                                                    
    Ephemeris:
    Date    TT    R. A. (2000) Decl.     Delta      r    Elong.  Phase   m1    m2
    2020 03 13    22 07 03.0 -48 08 00   2.1187  1.6442    48.8    27.1  11.8
    ...
    2020 03 28    22 30 40.9 -43 43 34   1.7316  1.3934    53.6    35.2  10.6
    ...
    2020 04 05    22 44 39.9 -40 41 37   1.5071  1.2544    55.7    41.2   9.9
    ...
    2020 04 11    22 56 25.3 -37 48 51   1.3318  1.1476    56.8    47.0   9.2
    2020 04 12    22 58 32.1 -37 15 39   1.3021  1.1296    56.9    48.0   9.1
    2020 04 13    23 00 42.3 -36 40 53   1.2722  1.1116    57.0    49.2   9.0
    ...
    2020 04 19    23 15 10.3 -32 30 34   1.0915  1.0022    56.9    57.1   8.2
    ...
    2020 04 27    23 40 35.7 -23 54 00   0.8530  0.8542    53.9    72.3   7.0
    ...
    2020 05 12    01 17 42.4 +14 52 01   0.5572  0.5849    28.5   124.4   4.4
    
    M. P. C. Staff               (C) Copyright 2020 MPC           M.P.E.C. 2020-G94
    


    Read MPEC 2020-G93 Read MPEC 2020-G95


    MPEC number:

    Enter an MPEC number in one of the following forms:

    • 1997-B01 (the full form)
    • J97B01 (the packed version of the full form)
    • B01 (the abbreviated form)